Location: Beloeil
(45.5670°N, 73.2000°W)
Time: 09:33:06
(UTC-04:00)

Daily predictions for brighter satellites

Satellite Brightness Start Highest point End
(mag) Time Altitude Azimuth Time Altitude Azimuth Time Altitude Azimuth
BREEZE-M DEB (TANK) 3.9 20:05:25 10° W 20:09:26 88° N 20:24:55 10° E
Cosmos 1933 3.6 20:25:04 10° SSE 20:28:56 48° E 20:32:50 10° NNE
CZ-4B DEB 3.3 20:29:14 10° SE 20:32:04 38° ENE 20:34:55 10° N
USA 234 3.6 20:28:28 10° ESE 20:34:54 62° NNE 20:41:21 10° NW
Resurs 01 Rocket 2.6 20:33:02 10° S 20:37:22 51° W 20:41:44 10° NNW
Cosmos 1908 Rocket 4.0 20:34:40 10° N 20:38:49 42° ENE 20:42:57 10° SSE
Cosmos 1862 3.4 20:35:02 10° N 20:39:05 84° W 20:43:08 10° S
Cosmos 2263 Rocket 2.6 20:36:12 10° NNW 20:41:43 65° WSW 20:47:13 10° SSE
SAR-Lupe-4 3.5 20:39:45 10° SSE 20:43:20 77° ENE 20:46:56 10° N
Envisat 3.0 20:41:58 10° SSE 20:47:01 77° ENE 20:52:07 10° N
Meteor 1-29 3.2 20:45:33 10° NNE 20:48:56 49° E 20:52:17 10° S
Sich 1 Rocket 3.8 20:45:21 10° N 20:49:47 56° ENE 20:54:14 10° SSE
CZ-4C R/B 3.9 20:46:04 10° NNW 20:52:11 34° NE 20:58:58 10° E
Cosmos 1782 Rocket 4.3 20:49:28 10° N 20:53:33 36° ENE 20:57:11 12° SE
Cosmos 1733 Rocket 3.8 20:50:12 10° NNW 20:54:36 58° W 20:58:57 10° S
Helios 1A 3.2 20:50:42 10° S 20:54:57 74° WSW 20:59:13 10° NNW
Cosmos 1867 3.8 20:49:32 10° NW 20:55:00 73° WSW 21:00:24 10° SSE
Cosmos 2322 Rocket 3.2 20:52:04 10° SW 20:57:31 50° WNW 21:03:01 10° NNE
Cosmos 1825 4.1 20:56:15 10° NNW 20:59:37 30° W 21:02:58 10° SSW
Okean 1-7 3.9 20:56:29 10° SSE 21:00:20 31° E 21:04:13 10° NNE
H-2A R/B 3.7 20:57:18 11° E 21:00:23 18° ENE 21:03:37 10° NNE
SAR-Lupe-1 4.2 20:57:03 10° S 21:00:37 77° WSW 21:04:14 10° NNW
Cosmos 2360 Rocket 2.2 20:58:44 10° SSW 21:04:23 80° ESE 21:10:05 10° NNE
SeaSat 1 3.9 21:01:59 12° E 21:05:38 26° NE 21:09:40 10° N
ERS-1 Rocket 3.2 21:02:00 12° SSE 21:06:34 56° ENE 21:11:30 10° N
Cosmos 1939 Rocket 2.9 21:02:50 10° S 21:06:52 81° W 21:10:51 10° NNW
Cosmos 1862 Rocket 4.3 21:03:29 10° SSW 21:07:54 59° WNW 21:12:22 10° N
COSMOS 2428 3.1 21:04:54 10° S 21:10:11 41° ESE 21:15:31 10° NE
ATLAS 5 CENTAUR R/B 3.1 21:05:31 10° NW 21:11:19 51° WSW 21:17:34 10° SSE
Okean 2 Rocket 3.7 21:07:08 10° N 21:11:27 41° ENE 21:14:24 18° SE
Atlas Centaur 2 3.9 21:07:15 10° SW 21:12:16 23° S 21:16:08 15° SE
SPOT 5 3.7 21:09:18 17° ESE 21:12:20 33° ENE 21:16:24 10° N
NOSS 3-1 (C) 4.1 21:10:41 10° S 21:15:37 30° ESE 21:21:01 10° NE
Cosmos 1844 4.2 21:11:57 10° NNW 21:17:26 47° ENE 21:21:13 19° ESE
NOAA 11 4.4 21:14:18 16° SE 21:18:34 54° ENE 21:23:55 10° N
MOS 1-B Rocket 4.4 21:15:46 17° SE 21:19:48 42° ENE 21:25:03 10° N
ARGOS 3.7 21:18:37 18° SE 21:22:10 43° ENE 21:27:16 10° N
USA 229 DEB 3.6 21:15:29 10° SSW 21:22:17 77° SE 21:29:15 10° NE
USA 229 3.6 21:15:36 10° SSW 21:22:24 76° SE 21:29:22 10° NE
Cosmos 2322 3.8 21:18:51 10° SSW 21:24:34 85° WNW 21:30:19 10° NNE
Cosmos 1606 3.7 21:27:41 25° ESE 21:28:31 28° E 21:31:47 10° NNE
Cosmos 1703 Rocket 3.5 21:24:18 10° S 21:28:44 90° WSW 21:33:11 10° N
Meteor 1-25 Rocket 4.2 21:23:23 10° N 21:28:58 75° ENE 21:33:14 17° SSE
SL-16 R/B 4.2 21:24:11 10° WSW 21:29:13 32° NW 21:34:17 10° N
Helios 1B rocket 3.7 21:26:58 10° N 21:30:52 43° WNW 21:34:46 10° SW
Meteor 1-14 Rocket 4.4 21:25:52 10° NNW 21:31:35 79° W 21:37:04 12° S
NOSS 3-1 (A) 4.1 21:28:55 14° SSE 21:32:51 29° ESE 21:38:14 10° NE
Meteor 1-20 Rocket 4.2 21:30:34 10° N 21:36:11 76° E 21:40:14 20° SSE
YAOGAN 6 3.1 21:34:54 16° S 21:37:38 56° W 21:41:11 10° NNW
USA 267 3.9 21:35:38 10° NE 21:42:02 58° NNW 21:48:24 10° WSW
Cosmos 1777 Rocket 4.1 21:36:48 10° NNW 21:42:06 74° WSW 21:45:38 21° S
Cosmos 1844 Rocket 2.6 21:37:16 10° NNW 21:42:52 90° ENE 21:46:15 25° SSE
Cosmos 2237 Rocket 3.1 21:42:54 25° ESE 21:43:57 27° ESE 21:48:37 10° NE
Cosmos 2266 Rocket 4.4 21:39:07 10° NNW 21:45:22 67° W 21:51:41 10° S
Cosmos 2151 Rocket 4.0 21:41:47 10° N 21:46:05 46° ENE 21:47:37 32° SE
Cosmos 2333 4.1 21:41:09 10° SSW 21:46:50 72° ESE 21:52:36 10° NNE
Cosmos 2278 Rocket 2.8 21:41:24 10° NNW 21:46:50 44° ENE 21:49:35 26° ESE
MetOp-A 4.1 21:43:22 21° SSE 21:47:03 89° WSW 21:52:27 10° NNW
SPOT 1/Viking Rocket 3.8 21:45:28 28° SE 21:48:02 53° ENE 21:53:06 10° N
Cosmos 2333 Rocket 2.6 21:46:22 23° SSE 21:49:24 40° ESE 21:54:46 10° NE
NOSS 0 Rocket 4.4 21:46:42 24° SSE 21:49:35 37° ESE 21:55:09 10° NE
Terra 3.1 21:49:20 23° E 21:50:49 27° ENE 21:54:46 10° N
Cosmos 1536 4.4 21:50:34 10° NNE 21:53:39 20° ENE 21:53:55 20° ENE
Meteor 2-6 Rocket 4.4 21:51:49 22° SSE 21:55:37 59° E 22:01:28 10° NNE
ATLAS 3B R/B 4.4 21:50:27 10° NNW 21:55:59 24° NNE 22:01:17 10° ENE
Cosmos 2221 Rocket 4.1 21:53:28 10° SSW 21:57:49 60° W 22:02:15 10° N
Okean 1 Rocket 4.4 21:54:26 10° NNE 21:58:08 25° ENE 21:58:45 24° E
YAOGAN 11 4.2 21:57:15 28° S 21:59:28 72° WSW 22:03:48 10° NNW
Cosmos 1674 Rocket 4.4 21:59:38 31° E 21:59:46 31° E 22:03:35 10° NNE
BREEZE-M DEB (TANK) 4.3 22:00:35 10° W 22:04:46 87° S 22:20:16 10° ESE
Abrixas rocket 2.1 22:01:39 10° WNW 22:04:57 78° NNE 22:05:13 70° ENE
Cosmos 2219 Rocket 2.1 22:01:52 13° SSW 22:06:46 68° ESE 22:12:22 10° NNE
H-2A R/B 2.6 22:10:39 39° E 22:11:23 42° ENE 22:15:32 10° N
Cosmos 1633 2.4 22:09:49 10° N 22:13:30 76° E 22:13:48 70° SE
USA 234 3.7 22:14:54 28° S 22:18:02 48° SW 22:24:21 10° WNW
SL-08 R/B 4.4 22:14:54 10° N 22:21:04 74° E 22:23:26 39° SSE
Cosmos 1553 Rocket 3.9 22:21:38 35° SSE 22:24:22 69° E 22:30:32 10° NNE
Cosmos 1782 3.7 22:24:25 25° SW 22:26:27 47° WNW 22:30:22 10° N
Cosmos 1300 Rocket 3.4 22:26:49 10° N 22:31:11 71° E 22:31:32 67° ESE
Cosmos 1602 3.6 22:27:55 10° N 22:31:47 83° W 22:31:54 81° SW
SL-08 RB Rocket 4.3 22:33:13 36° SSW 22:34:40 51° W 22:39:07 10° NNW
Cosmos 1346 Rocket 2.7 22:39:06 76° WSW 22:39:16 78° W 22:43:17 10° N
H-2A R/B 2.1 22:37:56 45° SSW 22:39:19 66° WSW 22:44:14 10° NNW
Cosmos 2369 Rocket 4.5 22:37:29 10° N 22:40:15 14° NE 22:43:01 10° ENE
CZ-4C R/B 2.9 22:34:21 10° NW 22:41:28 80° SW 22:44:27 42° SSE
Cosmos 2298 Rocket 4.0 22:36:26 10° NNW 22:41:47 70° ENE 22:42:44 57° ESE
Meteor 1-27 Rocket 3.6 22:39:56 41° S 22:42:02 88° W 22:47:38 10° N
SeaSat 1 2.8 22:41:46 46° SSW 22:42:52 57° WSW 22:47:44 10° NW
Cosmos 2297 4.0 22:38:38 10° NNW 22:44:17 57° ENE 22:45:32 47° ESE
Cosmos 2084 4.2 22:42:40 10° NW 22:46:00 37° WSW 22:46:00 37° WSW
SPOT 5 4.3 22:48:33 22° SW 22:50:25 29° W 22:54:24 10° NW
Cosmos 1386 Rocket 4.4 22:45:48 10° N 22:52:14 82° E 22:53:55 52° SSE
Cosmos 1937 Rocket 3.4 22:48:24 10° NNW 22:53:41 75° ENE 22:54:16 66° ESE
COSMOS 2428 4.3 22:49:22 10° WSW 22:54:32 35° NW 22:59:46 10° NNE
DMSP B5D2-2 4.0 22:49:20 10° NNE 22:54:38 88° W 22:55:50 55° SSW
S3M 4.1 22:53:34 36° SSW 22:56:14 74° W 23:02:30 10° N
Cosmos 1378 Rocket 3.7 22:57:50 64° NE 22:57:50 64° NE 23:01:48 10° NNE
Meteor 2-11 Rocket 4.3 22:55:27 47° S 22:57:23 88° W 23:03:31 10° N
Atlas Centaur 2 4.4 22:55:49 10° SW 22:58:46 17° SSW 22:58:46 17° SSW
Cosmos 1980 3.8 22:58:04 32° SW 23:00:46 74° WNW 23:06:27 10° NNE
Cosmos 990 Rocket 3.9 22:55:39 10° NNW 23:00:49 72° ENE 23:01:11 69° E
Cosmos 1709 Rocket 4.1 22:54:44 10° N 23:01:05 61° ENE 23:02:17 52° ESE
Okean 3 3.7 23:06:16 62° NNE 23:06:16 62° NNE 23:09:48 10° N
Cosmos 858 Rocket 4.4 23:00:26 10° NNW 23:05:39 74° WSW 23:06:06 69° SSW
NOSS 3-1 (C) 4.0 23:00:14 10° WSW 23:06:01 56° NW 23:12:37 10° NE
ATLAS CENTAUR R/B 3.2 23:09:39 22° NE 23:09:39 22° NE 23:11:10 10° NE
Iridium 4 Rocket 3.3 23:03:09 10° N 23:07:08 59° W 23:07:08 59° W
Meteor 1-11 Rocket 4.4 23:02:01 10° NNW 23:07:18 47° W 23:08:50 38° SW
SL-16 R/B 2.4 23:07:51 52° E 23:07:51 52° E 23:12:56 10° NE
ASTEX 1 4.0 23:08:05 45° SW 23:08:59 50° W 23:13:51 10° NNW
deb Chang Zheng 4 3.8 23:10:13 10° N 23:14:35 64° WNW 23:14:36 64° WNW
Cosmos 2150 Rocket 4.1 23:10:08 10° NNW 23:15:35 71° WSW 23:16:02 67° SW
IGS 5A 4.3 23:17:57 45° W 23:17:57 45° W 23:21:36 10° NNW
CARTOSAT-1 4.4 23:19:48 42° W 23:19:48 42° W 23:23:46 10° NNW
Cosmos 1898 Rocket 4.0 23:15:09 10° NNW 23:20:07 48° WSW 23:20:27 47° WSW
Cosmos 1340 4.4 23:22:26 27° NNE 23:22:26 27° NNE 23:24:20 10° NNE
Cosmos 1763 Rocket 3.7 23:21:30 60° ENE 23:21:30 60° ENE 23:26:10 10° NNE
NOSS 3-1 (A) 4.0 23:17:28 10° SW 23:23:17 58° NW 23:29:54 10° NE
ATLAS 2AS CENTAUR R/B 3.2 23:23:55 49° SE 23:24:22 50° ESE 23:32:05 10° NE
CZ-2C R/B 4.1 23:22:15 10° NE 23:25:49 24° ENE 23:25:49 24° ENE
Cosmos 2237 Rocket 2.9 23:24:38 26° WSW 23:27:40 51° WNW 23:33:15 10° NNE
Terra 2.7 23:28:13 38° WSW 23:28:23 38° W 23:32:51 10° NNW
Cosmos 1125 Rocket 4.1 23:24:05 10° N 23:29:13 46° ENE 23:29:23 46° ENE
Cosmos 1536 4.3 23:26:32 10° NNW 23:29:40 32° WNW 23:29:40 32° WNW
Cosmos 2074 Rocket 4.5 23:24:33 10° N 23:30:30 45° ENE 23:31:03 44° E
Cosmos 2278 Rocket 3.3 23:25:50 10° NW 23:30:44 31° WSW 23:31:26 30° WSW
Cosmos 2333 Rocket 3.6 23:28:25 10° WSW 23:33:43 36° NW 23:39:03 10° NNE
Okean 1 Rocket 4.4 23:32:05 10° NNW 23:35:57 33° W 23:35:57 33° W
Cosmos 1455 Rocket 3.9 23:33:25 10° N 23:36:50 45° NNE 23:36:50 45° NNE
Cosmos 2285 Rocket 4.0 23:40:54 63° SW 23:42:02 83° WNW 23:48:27 10° NNE
Cosmos 1814 Rocket 4.3 23:44:26 58° W 23:44:45 60° WNW 23:49:52 10° NNE
H-2A R/B 4.1 23:47:46 20° W 23:47:46 20° W 23:50:49 10° NW
ATLAS 3B R/B 2.7 23:41:07 10° NW 23:47:58 69° NE 23:49:10 58° ESE
Cosmos 2219 Rocket 4.3 23:46:50 10° W 23:51:15 23° NW 23:55:43 10° N
CZ-2C R/B 3.6 23:55:29 47° NE 23:55:29 47° NE 23:59:47 10° N
